(124) Alkeste
ephemeris date magn radius delta ra dec elong phase
Today25 Jun 202613.42.678 AU2.766 AU01h08m+07°49'74.4°21.4°
Opposition14 Oct 202611.62.758 AU1.761 AU01h21m+07°25'178.7°0.5°
(124) Alkeste - 2026-06-25
astro.vanbuitenen.nl


 
-1 year
-1 month
-1 day
Now
+1 day
+1 month
+1 year

The interactive orbit chart above shows the body's path through the solar system and its position at the given date. Green and blue lines are shown perpendicular to the ecliptic plane: Green if the path is above the ecliptic plane, blue if it is below. (Left-click and drag to rotate the view; Right-click and drag to move the view; Use scroll wheel to zoom in our out.)

The orbital elements of Alkeste are:

            e (Eccentricity)                : 0.0784638
            a (Semimajor axis)              : 2.6295157
            i (Inclination)                 : 2.96383
            Ω (Longitude of ascending node) : 187.89719
            ω (Argument of perihelion)      : 61.49319
            M (Mean anomaly)                : 95.49904
            Epoch                           : 2026 Jun 09

            L (Longitude of perihelion)     : 249.35820
            B (Latitude of perihelion)      : 2.60423
            P (Orbital period in years)     : 4.26            
        

The light curve chart below shows the estimated development of the minor planet's magnitude.


The all-sky chart below shows the path of the minor planet over the same period as the light curve. The current position is marked yellow.





The following chart shows the path of the minor planet in the next few days. The field of view is optimized for (~10x50) binoculars and finderscopes.




Ephemerides:
Date       Time       RA (2000)    DEC (2000)    delta   radius  elong  phase   PA    magn
2026-06-25 00:00 UT   01 08 21.8   +07 49 50     2.766    2.678   74.4   21.4   248   13.4 
2026-06-25 12:32 UT   01 08 55.9   +07 53 01     2.760    2.678   74.7   21.5   248   13.4 
2026-06-26 00:00 UT   01 09 27.0   +07 55 55     2.755    2.679   75.0   21.5   248   13.4 
2026-06-27 00:00 UT   01 10 31.7   +08 01 55     2.743    2.680   75.7   21.6   248   13.4 
2026-06-28 00:00 UT   01 11 35.7   +08 07 50     2.731    2.680   76.4   21.6   248   13.4 
2026-06-29 00:00 UT   01 12 39.0   +08 13 40     2.719    2.681   77.1   21.7   248   13.4 
2026-06-30 00:00 UT   01 13 41.7   +08 19 25     2.707    2.682   77.7   21.7   248   13.4 
2026-07-01 00:00 UT   01 14 43.7   +08 25 05     2.695    2.683   78.4   21.8   248   13.4 
2026-07-02 00:00 UT   01 15 45.1   +08 30 40     2.683    2.683   79.1   21.8   248   13.4 
2026-07-03 00:00 UT   01 16 45.7   +08 36 10     2.671    2.684   79.8   21.9   248   13.4 
2026-07-04 00:00 UT   01 17 45.6   +08 41 34     2.659    2.685   80.5   21.9   248   13.4 
2026-07-05 00:00 UT   01 18 44.8   +08 46 53     2.647    2.686   81.2   22.0   248   13.4 
2026-07-06 00:00 UT   01 19 43.3   +08 52 07     2.635    2.687   81.9   22.0   248   13.4 
2026-07-07 00:00 UT   01 20 41.1   +08 57 15     2.623    2.687   82.6   22.0   248   13.4 
2026-07-08 00:00 UT   01 21 38.0   +09 02 17     2.610    2.688   83.3   22.1   248   13.3 
2026-07-09 00:00 UT   01 22 34.2   +09 07 14     2.598    2.689   84.0   22.1   248   13.3 
2026-07-10 00:00 UT   01 23 29.6   +09 12 05     2.586    2.690   84.7   22.1   248   13.3 
2026-07-11 00:00 UT   01 24 24.2   +09 16 50     2.574    2.690   85.4   22.1   248   13.3 
2026-07-12 00:00 UT   01 25 18.0   +09 21 29     2.562    2.691   86.1   22.1   248   13.3 
2026-07-13 00:00 UT   01 26 10.9   +09 26 03     2.549    2.692   86.8   22.2   248   13.3 
2026-07-14 00:00 UT   01 27 03.0   +09 30 30     2.537    2.693   87.6   22.2   248   13.3 
2026-07-15 00:00 UT   01 27 54.2   +09 34 51     2.525    2.694   88.3   22.2   248   13.3 
2026-07-16 00:00 UT   01 28 44.6   +09 39 07     2.512    2.694   89.0   22.2   248   13.3 
2026-07-17 00:00 UT   01 29 34.0   +09 43 15     2.500    2.695   89.8   22.2   248   13.3 
2026-07-18 00:00 UT   01 30 22.5   +09 47 18     2.488    2.696   90.5   22.1   248   13.2 
2026-07-19 00:00 UT   01 31 10.1   +09 51 14     2.475    2.697   91.3   22.1   248   13.2 
2026-07-20 00:00 UT   01 31 56.8   +09 55 04     2.463    2.697   92.0   22.1   249   13.2 
2026-07-21 00:00 UT   01 32 42.5   +09 58 48     2.451    2.698   92.8   22.1   249   13.2 
2026-07-22 00:00 UT   01 33 27.3   +10 02 24     2.438    2.699   93.6   22.1   249   13.2 
2026-07-23 00:00 UT   01 34 11.0   +10 05 55     2.426    2.700   94.3   22.0   249   13.2 
2026-07-24 00:00 UT   01 34 53.8   +10 09 19     2.414    2.700   95.1   22.0   249   13.2 
2026-07-25 00:00 UT   01 35 35.6   +10 12 36     2.401    2.701   95.9   22.0   249   13.2 


    Terminology:
            
    delta:  distance between minor planet and earth in AU
    radius: distance between minor planet and sun in AU
    magn:   magnitude (brightness) estimate    
    ra:     right ascension in hours (24h = 360deg)
    dec:    declination in degrees
    elong:  elongation in degrees (angle sun-earth-minor planet)    
    phase:  phase angle in degrees (angle sun-minor planet-earth)        
    AU:     Astronomical Unit (mean distance between earth and sun: 149597870.7 km
    

Orbital elements provided by the MPC (Minor Planet Center).
Calculations by a modified version of AAPlus, a C# implementation of the AA+ project by PJ Naughter from the algorithms presented in the book "Astronomical Algorithms" by Jean Meeus.
NGC2000 dso catalog and star labels from VizieR as provided by the Strasbourg astronomical Data Center.
Tycho2 catalog from the ESO archive.